SCP
0 0 0 0 0 0 0 0 0 0 0 0 0 0 0 0 0 0 0 0 0 0 0 0 0 0 0 0 0 0 0 0 0 0 0 0 0 -0 0 0 0 0 0
0 0 0 0 0 0 0 0 0 0 0 0 0 0 0 0 0 0 0 0 0 0 0 0 0 0 0 0 0 0 0 0 0 0 0 0 0 0 0 -0 0 0 0
0 0 0 0 0 0 0 0 0 0 0 0 0 0 0 0 0 0 0 0 0 0 0 0 0 0 0 0 0 0 0 0 0 0 0 0 0 0 -0 0 0 0 0
0 0 0 0 0 0 0 0 0 0 0 0 0 0 0 0 0 0 0 0 0 0 0 0 0 0 0 0 0 0 0 0 0 0 0 0 0 0 0 0 0 0 -0
0 0 0 0 0 0 0 0 0 0 0 0 0 0 0 0 0 0 0 0 0 0 0 0 0 0 0 0 0 0 0 0 0 0 0 0 0 0 0 0 0 0 0
0 0 0 0 0 0 0 0 0 0 0 0 0 0 0 0 0 0 0 0 0 0 0 0 0 0 0 0 0 0 0 0 0 0 0 0 0 0 0 0 0 0 0
0 0 0 0 0 0 0 0 0 0 0 0 0 0 0 0 0 0 0 0 0 0 0 0 0 0 0 0 0 0 0 0 0 0 0 0 0 0 0 0 0 0 0
0 0 0 0 0 0 0 0 0 0 0 0 0 0 0 0 0 0 0 0 0 0 0 0 0 0 0 0 0 0 0 0 0 0 0 0 0 0 0 0 0 0 0
0 0 0 0 0 0 0 0 0 0 0 0 0 0 0 0 0 0 0 0 0 0 0 0 0 0 0 0 0 0 0 0 0 0 0 0 0 0 0 0 0 0 0
0 0 0 0 0 0 0 0 0 0 0 0 0 0 0 0 0 0 0 0 0 0 0 0 0 0 0 0 0 0 0 0 0 0 0 0 0 0 0 0 0 0 0
0 0 0 0 0 0 0 0 0 0 0 0 0 0 0 0 0 0 0 0 0 0 0 0 0 0 0 0 0 0 0 0 0 0 0 0 0 0 0 0 0 0 0
0 0 0 0 0 0 0 0 0 0 0 0 0 0 0 0 0 0 0 0 0 0 0 0 0 0 0 0 0 0 0 0 0 0 0 0 0 0 0 0 0 0 0
0 0 0 0 0 0 0 0 0 0 0 0 0 0 0 0 0 0 0 0 0 0 0 0 0 0 0 0 0 0 0 0 0 0 0 0 0 0 0 0 0 0 0
0 0 0 0 0 0 0 0 0 0 0 0 0 0 0 0 0 0 0 0 0 0 0 0 0 0 0 0 0 0 0 0 0 0 0 0 0 0 0 0 0 0 0
0 0 0 0 0 0 0 0 0 0 0 0 0 0 0 0 0 0 0 0 0 0 0 0 0 0 0 0 0 0 0 0 0 0 0 0 0 0 0 0 0 0 0
0 0 0 0 0 0 0 0 0 0 0 0 0 0 0 0 0 0 0 0 0 0 0 0 0 0 0 0 0 0 0 0 0 0 0 0 0 0 0 0 0 0 0
0 0 0 0 0 0 0 0 0 0 0 0 0 0 0 0 0 0 0 0 0 0 0 0 0 0 0 0 0 0 0 0 0 0 0 0 0 0 0 0 0 0 0
0 0 0 0 0 0 0 0 0 0 0 0 0 0 0 0 0 0 0 0 0 0 0 0 0 0 0 0 0 0 0 0 0 0 0 0 0 0 0 0 0 0 0
0 0 0 0 0 0 0 0 0 0 0 0 0 0 0 0 0 0 0 0 0 0 0 0 0 0 0 0 0 0 0 0 0 0 0 0 0 0 0 0 0 0 0
0 0 0 0 0 0 0 0 0 0 0 0 0 0 0 0 0 0 0 0 0 0 0 0 0 0 0 0 0 0 0 0 0 0 0 0 0 0 0 0 0 0 0
0 0 0 0 0 0 0 0 0 0 0 0 0 0 0 0 0 0 0 0 0 0 0 0 0 0 0 0 0 0 0 0 0 0 0 0 0 0 0 0 0 0 0
0 0 0 0 0 0 0 0 0 0 0 0 0 0 0 0 0 0 0 0 0 0 0 0 0 0 0 0 0 0 0 0 0 0 0 0 0 0 0 0 0 0 0
0 0 0 0 0 0 0 0 0 0 0 0 0 0 0 0 0 0 0 0 0 0 0 0 0 0 0 0 -0 0 0 0 0 0 0 0 0 0 0 0 0 0 0
0 0 0 0 0 0 0 0 0 0 0 0 0 0 0 0 0 0 0 0 0 0 0 0 0 0 0 0 0 0 0 0 0 0 0 0 0 0 0 0 0 0 0
0 0 0 0 0 0 0 0 0 0 0 0 0 0 0 0 0 0 0 0 0 0 0 0 0 0 0 0 0 0 0 0 0 0 0 0 0 0 0 0 0 0 0
0 0 0 0 0 0 0 0 0 0 0 0 0 0 0 0 0 0 0 0 0 0 0 0 0 0 0 -0 0 0 0 0 0 0 0 0 0 0 0 0 0 0 0
Wind_Speed_500mb
48 47 57 62 64 65 67 66 69 68 67 63 59 56 53 49 43 37 35 34 33 33 33 37 43 47 50 50 50 53 55 56 60 71 77 85 52 59 54 43 36 44 73
38 43 56 67 69 68 72 70 69 70 69 65 61 58 53 52 48 45 42 41 38 35 36 38 43 47 50 47 47 49 55 55 52 51 64 39 66 6 16 41 65 49 61
40 45 57 63 67 73 74 73 73 73 72 68 66 63 57 53 51 50 48 43 38 38 40 42 44 47 47 46 47 49 52 55 53 45 32 24 23 78 48 40 63 40 45
39 44 56 64 68 68 69 71 74 75 74 73 72 66 61 59 56 55 52 46 43 41 43 43 44 46 45 46 49 52 57 59 59 51 48 45 56 29 69 66 93 106 84
41 51 61 55 56 58 66 69 73 76 79 80 76 72 69 65 60 58 53 48 44 46 45 43 44 46 48 47 53 58 59 62 60 57 56 59 62 60 57 99 88 96 89
33 39 45 47 52 57 65 70 71 78 81 82 80 78 73 70 69 64 58 50 49 47 45 44 45 47 50 54 60 64 66 65 66 66 66 69 66 58 53 69 117 95 111
36 41 48 51 54 61 64 69 66 72 82 86 86 83 78 73 69 65 59 55 52 46 44 45 47 50 56 61 65 69 70 71 72 71 73 72 78 80 74 67 105 118 136
38 47 49 48 52 58 61 63 65 67 80 86 88 85 79 77 72 66 61 56 50 43 45 47 47 53 60 66 69 73 73 70 71 69 68 74 80 82 84 78 74 100 119
44 48 47 52 55 58 58 60 68 72 76 85 88 88 83 77 73 66 60 54 46 45 47 47 49 55 62 66 67 69 68 67 67 70 72 75 80 81 81 82 79 81 96
42 48 54 60 59 57 59 64 69 74 73 84 89 91 85 77 72 66 58 49 47 47 46 48 53 56 59 61 61 63 63 66 69 72 76 80 84 85 84 87 87 86 93
40 48 57 59 59 56 68 68 70 74 78 87 92 92 86 79 73 64 56 50 46 46 48 51 53 54 55 57 59 60 64 66 69 70 75 83 83 86 87 85 87 90 91
37 40 54 63 66 68 73 77 75 77 82 87 94 94 88 79 70 63 55 48 45 47 50 50 51 52 54 56 58 62 64 68 71 72 77 85 84 86 89 88 90 93 94
41 49 55 61 70 77 77 83 82 81 85 90 93 92 88 80 72 64 54 48 46 47 50 49 49 51 53 57 59 64 68 69 71 74 79 86 85 88 85 86 90 89 90
60 63 61 72 76 80 81 83 84 82 86 91 95 93 92 81 70 59 53 48 48 49 47 45 45 51 56 59 61 64 67 71 75 78 82 84 81 86 87 89 91 91 90
65 58 68 75 81 83 85 83 82 85 90 93 94 94 89 79 70 59 54 52 50 47 43 41 45 52 56 57 60 65 69 75 81 84 83 81 80 79 80 89 97 92 91
69 78 87 85 84 92 91 86 87 92 92 95 92 94 92 81 70 63 58 52 48 41 37 41 46 53 55 55 58 64 71 78 80 85 81 81 82 82 79 82 88 90 95
74 73 77 76 85 89 91 88 87 90 92 91 88 96 87 76 69 63 56 50 44 38 37 40 46 51 52 53 57 66 73 76 78 78 82 84 81 84 90 90 85 87 87
86 76 75 70 75 75 75 75 79 86 90 87 91 91 87 78 71 63 55 47 40 36 35 38 44 48 48 52 58 68 68 74 79 84 84 88 97 92 87 94 93 92 93
88 78 68 66 66 60 58 67 74 81 81 85 88 91 83 76 69 59 49 41 38 33 31 37 41 46 46 49 57 56 64 75 86 87 86 89 92 87 87 92 99 102 100
64 60 52 53 57 54 55 61 73 79 84 88 91 89 82 71 62 51 42 38 34 29 30 34 38 43 46 48 52 48 61 80 89 97 87 87 86 78 82 87 95 101 96
50 53 53 51 52 56 60 66 71 80 84 83 91 91 83 73 61 48 42 36 31 28 27 32 32 35 41 47 42 44 56 72 87 97 101 91 79 83 89 86 89 101 92
66 67 64 60 60 61 62 69 76 80 88 88 93 88 78 66 55 47 41 34 28 23 25 28 28 30 36 42 42 46 53 62 74 84 86 90 89 83 77 76 79 65 68
63 65 64 66 67 69 72 78 82 88 83 95 93 84 70 60 54 46 38 30 23 20 21 21 26 30 35 40 44 50 55 60 66 67 75 78 68 67 65 62 59 44 52
73 69 69 70 72 73 73 78 86 81 89 98 87 80 70 62 52 44 35 25 22 19 16 17 21 28 34 39 52 59 66 70 68 73 77 67 56 60 54 62 55 47 48
87 86 82 76 76 74 79 89 88 86 101 95 91 82 71 59 51 40 31 25 20 15 13 13 18 26 31 39 45 51 59 64 61 70 74 77 77 70 76 66 68 64 56
98 97 91 82 82 79 87 93 87 99 108 102 94 82 68 59 51 44 35 27 18 11 9 10 13 19 22 30 39 46 50 51 54 67 74 76 77 73 75 80 76 75 70
Wind_Direction_500mb
246 227 221 211 211 210 213 216 219 220 222 224 226 230 234 236 238 240 247 256 264 275 292 302 310 309 313 316 320 320 320 321 320 318 317 318 327 318 308 305 286 293 297
223 219 213 207 211 214 219 218 219 221 225 226 228 231 233 235 236 239 245 251 262 278 290 296 298 305 308 315 316 316 317 318 322 318 322 324 323 12 259 282 291 287 299
225 210 205 208 210 216 219 220 222 224 227 227 229 231 232 235 236 238 244 252 264 273 283 290 298 302 305 311 311 313 313 311 312 312 301 316 296 309 321 281 292 294 284
218 209 202 207 216 218 222 224 225 227 229 229 231 234 237 238 238 238 242 251 261 271 279 287 296 298 301 307 309 308 308 307 305 302 299 289 291 308 308 296 290 297 300
221 201 207 214 215 217 224 227 227 229 231 231 232 234 234 235 236 239 244 252 262 271 278 288 291 296 301 306 304 302 303 301 296 295 292 288 284 276 270 293 295 292 295
201 200 204 206 211 219 223 224 227 232 233 233 233 234 234 235 236 239 244 250 259 269 279 286 291 296 300 302 301 299 299 298 294 292 288 285 278 273 268 275 287 287 291
189 190 199 207 212 218 221 219 225 234 233 232 233 232 233 234 237 239 243 248 257 266 277 285 292 298 299 299 299 299 298 296 291 287 284 280 276 277 274 270 281 289 292
199 201 208 217 218 220 221 219 225 232 235 234 233 232 232 233 234 237 242 249 257 266 275 282 290 295 297 299 300 298 297 295 290 287 285 285 285 283 277 270 270 282 286
212 213 219 224 220 221 221 225 227 231 236 237 234 232 232 231 232 235 241 248 257 266 274 284 291 294 297 298 299 298 298 295 292 290 289 288 285 279 275 272 265 263 275
225 228 232 228 223 227 225 228 231 236 237 238 236 233 231 230 230 233 241 248 258 268 278 285 291 294 296 298 298 299 299 295 293 290 290 288 286 281 276 274 269 264 260
227 236 239 234 230 235 231 231 232 233 234 237 235 232 228 226 228 233 237 245 257 269 278 285 289 294 299 299 300 302 299 296 295 294 292 290 286 280 274 272 271 269 266
245 243 244 238 234 239 235 234 234 233 237 235 233 230 226 224 226 230 236 246 258 267 276 282 289 296 300 303 304 303 301 299 297 298 294 292 291 285 282 277 273 271 269
247 253 242 236 245 242 238 237 236 236 233 232 231 228 221 221 224 228 237 246 256 265 272 281 291 299 304 303 305 304 303 301 299 298 297 297 295 289 284 279 276 274 273
253 251 242 253 256 250 247 242 239 236 233 231 230 228 220 220 222 227 236 248 255 263 272 285 297 302 304 306 309 308 305 303 301 301 299 296 290 286 286 282 277 276 273
270 256 247 248 256 254 249 243 241 237 233 230 229 225 218 218 219 224 233 243 253 263 275 291 298 302 304 308 310 308 306 306 305 302 299 296 293 287 284 281 279 275 272
275 269 265 263 254 258 257 251 241 235 232 231 228 220 215 215 218 223 231 241 251 262 279 290 299 300 303 309 311 311 309 305 304 306 302 296 296 291 288 284 276 272 271
276 274 273 266 265 261 260 254 241 233 231 228 225 217 213 214 219 224 231 238 248 263 278 290 298 301 306 310 313 311 307 306 308 305 305 303 295 293 292 291 284 274 268
275 277 277 271 267 264 256 247 238 234 230 226 223 214 212 212 218 225 231 239 249 261 277 292 298 302 310 310 312 309 310 313 315 312 304 301 299 295 294 291 286 285 279
273 277 277 273 270 262 250 241 231 228 225 223 218 211 211 213 217 223 231 239 250 264 283 295 300 304 310 312 314 321 321 319 315 311 307 304 303 300 298 291 287 284 279
277 274 273 271 268 257 241 230 227 224 224 222 212 207 209 214 221 224 230 241 253 269 287 297 303 308 313 318 326 327 323 319 315 317 312 307 305 304 301 295 291 286 281
268 268 268 269 259 248 239 230 225 225 223 216 206 204 206 210 216 223 229 238 252 270 287 296 307 310 319 326 330 327 323 319 318 312 315 314 314 309 305 301 290 282 281
271 266 257 259 252 244 235 229 225 219 217 207 200 203 203 208 216 221 227 233 247 267 284 301 311 318 325 332 333 328 324 323 317 318 320 319 314 312 312 307 309 290 271
273 260 257 248 243 239 233 228 224 219 211 198 195 197 201 208 213 218 220 229 243 264 285 300 314 327 334 340 338 331 329 328 327 328 322 318 320 317 317 318 316 310 289
283 273 257 244 240 236 230 227 225 215 202 193 192 195 202 206 209 213 217 227 241 257 278 301 323 336 341 344 346 335 336 335 333 332 338 346 331 336 324 332 332 321 302
289 280 269 261 251 234 224 223 218 208 193 190 193 197 200 201 203 207 211 217 230 250 279 308 334 339 342 348 334 337 339 337 335 336 351 358 358 346 343 341 339 336 331
282 276 268 257 249 231 222 220 212 196 191 190 190 194 197 198 204 199 199 205 212 237 273 321 326 338 342 334 335 343 346 344 345 355 359 358 352 343 339 342 338 337 333
Wind_Speed_850mb
48 47 57 62 64 65 67 66 69 68 67 63 59 56 53 49 43 37 35 34 33 33 33 37 43 47 50 50 50 53 55 56 60 71 77 85 52 59 54 43 36 44 73
38 43 56 67 69 68 72 70 69 70 69 65 61 58 53 52 48 45 42 41 38 35 36 38 43 47 50 47 47 49 55 55 52 51 64 39 66 6 16 41 65 49 61
40 45 57 63 67 73 74 73 73 73 72 68 66 63 57 53 51 50 48 43 38 38 40 42 44 47 47 46 47 49 52 55 53 45 32 24 23 78 48 40 63 40 45
39 44 56 64 68 68 69 71 74 75 74 73 72 66 61 59 56 55 52 46 43 41 43 43 44 46 45 46 49 52 57 59 59 51 48 45 56 29 69 66 93 106 84
41 51 61 55 56 58 66 69 73 76 79 80 76 72 69 65 60 58 53 48 44 46 45 43 44 46 48 47 53 58 59 62 60 57 56 59 62 60 57 99 88 96 89
33 39 45 47 52 57 65 70 71 78 81 82 80 78 73 70 69 64 58 50 49 47 45 44 45 47 50 54 60 64 66 65 66 66 66 69 66 58 53 69 117 95 111
36 41 48 51 54 61 64 69 66 72 82 86 86 83 78 73 69 65 59 55 52 46 44 45 47 50 56 61 65 69 70 71 72 71 73 72 78 80 74 67 105 118 136
38 47 49 48 52 58 61 63 65 67 80 86 88 85 79 77 72 66 61 56 50 43 45 47 47 53 60 66 69 73 73 70 71 69 68 74 80 82 84 78 74 100 119
44 48 47 52 55 58 58 60 68 72 76 85 88 88 83 77 73 66 60 54 46 45 47 47 49 55 62 66 67 69 68 67 67 70 72 75 80 81 81 82 79 81 96
42 48 54 60 59 57 59 64 69 74 73 84 89 91 85 77 72 66 58 49 47 47 46 48 53 56 59 61 61 63 63 66 69 72 76 80 84 85 84 87 87 86 93
40 48 57 59 59 56 68 68 70 74 78 87 92 92 86 79 73 64 56 50 46 46 48 51 53 54 55 57 59 60 64 66 69 70 75 83 83 86 87 85 87 90 91
37 40 54 63 66 68 73 77 75 77 82 87 94 94 88 79 70 63 55 48 45 47 50 50 51 52 54 56 58 62 64 68 71 72 77 85 84 86 89 88 90 93 94
41 49 55 61 70 77 77 83 82 81 85 90 93 92 88 80 72 64 54 48 46 47 50 49 49 51 53 57 59 64 68 69 71 74 79 86 85 88 85 86 90 89 90
60 63 61 72 76 80 81 83 84 82 86 91 95 93 92 81 70 59 53 48 48 49 47 45 45 51 56 59 61 64 67 71 75 78 82 84 81 86 87 89 91 91 90
65 58 68 75 81 83 85 83 82 85 90 93 94 94 89 79 70 59 54 52 50 47 43 41 45 52 56 57 60 65 69 75 81 84 83 81 80 79 80 89 97 92 91
69 78 87 85 84 92 91 86 87 92 92 95 92 94 92 81 70 63 58 52 48 41 37 41 46 53 55 55 58 64 71 78 80 85 81 81 82 82 79 82 88 90 95
74 73 77 76 85 89 91 88 87 90 92 91 88 96 87 76 69 63 56 50 44 38 37 40 46 51 52 53 57 66 73 76 78 78 82 84 81 84 90 90 85 87 87
86 76 75 70 75 75 75 75 79 86 90 87 91 91 87 78 71 63 55 47 40 36 35 38 44 48 48 52 58 68 68 74 79 84 84 88 97 92 87 94 93 92 93
88 78 68 66 66 60 58 67 74 81 81 85 88 91 83 76 69 59 49 41 38 33 31 37 41 46 46 49 57 56 64 75 86 87 86 89 92 87 87 92 99 102 100
64 60 52 53 57 54 55 61 73 79 84 88 91 89 82 71 62 51 42 38 34 29 30 34 38 43 46 48 52 48 61 80 89 97 87 87 86 78 82 87 95 101 96
50 53 53 51 52 56 60 66 71 80 84 83 91 91 83 73 61 48 42 36 31 28 27 32 32 35 41 47 42 44 56 72 87 97 101 91 79 83 89 86 89 101 92
66 67 64 60 60 61 62 69 76 80 88 88 93 88 78 66 55 47 41 34 28 23 25 28 28 30 36 42 42 46 53 62 74 84 86 90 89 83 77 76 79 65 68
63 65 64 66 67 69 72 78 82 88 83 95 93 84 70 60 54 46 38 30 23 20 21 21 26 30 35 40 44 50 55 60 66 67 75 78 68 67 65 62 59 44 52
73 69 69 70 72 73 73 78 86 81 89 98 87 80 70 62 52 44 35 25 22 19 16 17 21 28 34 39 52 59 66 70 68 73 77 67 56 60 54 62 55 47 48
87 86 82 76 76 74 79 89 88 86 101 95 91 82 71 59 51 40 31 25 20 15 13 13 18 26 31 39 45 51 59 64 61 70 74 77 77 70 76 66 68 64 56
98 97 91 82 82 79 87 93 87 99 108 102 94 82 68 59 51 44 35 27 18 11 9 10 13 19 22 30 39 46 50 51 54 67 74 76 77 73 75 80 76 75 70
Wind_Direction_850mb
246 227 221 211 211 210 213 216 219 220 222 224 226 230 234 236 238 240 247 256 264 275 292 302 310 309 313 316 320 320 320 321 320 318 317 318 327 318 308 305 286 293 297
223 219 213 207 211 214 219 218 219 221 225 226 228 231 233 235 236 239 245 251 262 278 290 296 298 305 308 315 316 316 317 318 322 318 322 324 323 12 259 282 291 287 299
225 210 205 208 210 216 219 220 222 224 227 227 229 231 232 235 236 238 244 252 264 273 283 290 298 302 305 311 311 313 313 311 312 312 301 316 296 309 321 281 292 294 284
218 209 202 207 216 218 222 224 225 227 229 229 231 234 237 238 238 238 242 251 261 271 279 287 296 298 301 307 309 308 308 307 305 302 299 289 291 308 308 296 290 297 300
221 201 207 214 215 217 224 227 227 229 231 231 232 234 234 235 236 239 244 252 262 271 278 288 291 296 301 306 304 302 303 301 296 295 292 288 284 276 270 293 295 292 295
201 200 204 206 211 219 223 224 227 232 233 233 233 234 234 235 236 239 244 250 259 269 279 286 291 296 300 302 301 299 299 298 294 292 288 285 278 273 268 275 287 287 291
189 190 199 207 212 218 221 219 225 234 233 232 233 232 233 234 237 239 243 248 257 266 277 285 292 298 299 299 299 299 298 296 291 287 284 280 276 277 274 270 281 289 292
199 201 208 217 218 220 221 219 225 232 235 234 233 232 232 233 234 237 242 249 257 266 275 282 290 295 297 299 300 298 297 295 290 287 285 285 285 283 277 270 270 282 286
212 213 219 224 220 221 221 225 227 231 236 237 234 232 232 231 232 235 241 248 257 266 274 284 291 294 297 298 299 298 298 295 292 290 289 288 285 279 275 272 265 263 275
225 228 232 228 223 227 225 228 231 236 237 238 236 233 231 230 230 233 241 248 258 268 278 285 291 294 296 298 298 299 299 295 293 290 290 288 286 281 276 274 269 264 260
227 236 239 234 230 235 231 231 232 233 234 237 235 232 228 226 228 233 237 245 257 269 278 285 289 294 299 299 300 302 299 296 295 294 292 290 286 280 274 272 271 269 266
245 243 244 238 234 239 235 234 234 233 237 235 233 230 226 224 226 230 236 246 258 267 276 282 289 296 300 303 304 303 301 299 297 298 294 292 291 285 282 277 273 271 269
247 253 242 236 245 242 238 237 236 236 233 232 231 228 221 221 224 228 237 246 256 265 272 281 291 299 304 303 305 304 303 301 299 298 297 297 295 289 284 279 276 274 273
253 251 242 253 256 250 247 242 239 236 233 231 230 228 220 220 222 227 236 248 255 263 272 285 297 302 304 306 309 308 305 303 301 301 299 296 290 286 286 282 277 276 273
270 256 247 248 256 254 249 243 241 237 233 230 229 225 218 218 219 224 233 243 253 263 275 291 298 302 304 308 310 308 306 306 305 302 299 296 293 287 284 281 279 275 272
275 269 265 263 254 258 257 251 241 235 232 231 228 220 215 215 218 223 231 241 251 262 279 290 299 300 303 309 311 311 309 305 304 306 302 296 296 291 288 284 276 272 271
276 274 273 266 265 261 260 254 241 233 231 228 225 217 213 214 219 224 231 238 248 263 278 290 298 301 306 310 313 311 307 306 308 305 305 303 295 293 292 291 284 274 268
275 277 277 271 267 264 256 247 238 234 230 226 223 214 212 212 218 225 231 239 249 261 277 292 298 302 310 310 312 309 310 313 315 312 304 301 299 295 294 291 286 285 279
273 277 277 273 270 262 250 241 231 228 225 223 218 211 211 213 217 223 231 239 250 264 283 295 300 304 310 312 314 321 321 319 315 311 307 304 303 300 298 291 287 284 279
277 274 273 271 268 257 241 230 227 224 224 222 212 207 209 214 221 224 230 241 253 269 287 297 303 308 313 318 326 327 323 319 315 317 312 307 305 304 301 295 291 286 281
268 268 268 269 259 248 239 230 225 225 223 216 206 204 206 210 216 223 229 238 252 270 287 296 307 310 319 326 330 327 323 319 318 312 315 314 314 309 305 301 290 282 281
271 266 257 259 252 244 235 229 225 219 217 207 200 203 203 208 216 221 227 233 247 267 284 301 311 318 325 332 333 328 324 323 317 318 320 319 314 312 312 307 309 290 271
273 260 257 248 243 239 233 228 224 219 211 198 195 197 201 208 213 218 220 229 243 264 285 300 314 327 334 340 338 331 329 328 327 328 322 318 320 317 317 318 316 310 289
283 273 257 244 240 236 230 227 225 215 202 193 192 195 202 206 209 213 217 227 241 257 278 301 323 336 341 344 346 335 336 335 333 332 338 346 331 336 324 332 332 321 302
289 280 269 261 251 234 224 223 218 208 193 190 193 197 200 201 203 207 211 217 230 250 279 308 334 339 342 348 334 337 339 337 335 336 351 358 358 346 343 341 339 336 331
282 276 268 257 249 231 222 220 212 196 191 190 190 194 197 198 204 199 199 205 212 237 273 321 326 338 342 334 335 343 346 344 345 355 359 358 352 343 339 342 338 337 333